This is the latest recevied weather packets stored in our database for station/object DL9GRB-13. If no packets are shown the sender has not sent any weather packets the latest 10 day(s).
| Time | Temp. | Humidity | Pressure | Rain* | Wind** | Luminosity | Snow |
|---|---|---|---|---|---|---|---|
| 1777649287 | 21.11° C | 34% | 1025.4 hPa | 0 mm | - | 297 W/m² | - |
| 1777649107 | 21.11° C | 36% | 1025.7 hPa | 0 mm | - | 307 W/m² | - |
| 1777648927 | 21.11° C | 37% | 1025.7 hPa | 0 mm | - | 318 W/m² | - |
| 1777648746 | 20.56° C | 37% | 1025.5 hPa | 0 mm | - | 327 W/m² | - |
| 1777648387 | 20.56° C | 38% | 1025.6 hPa | 0 mm | - | 347 W/m² | - |
| 1777648207 | 20.56° C | 36% | 1025.8 hPa | 0 mm | - | 354 W/m² | - |
| 1777648027 | 21.11° C | 35% | 1025.8 hPa | 0 mm | - | 362 W/m² | - |
| 1777647847 | 21.11° C | 36% | 1025.5 hPa | 0 mm | - | 370 W/m² | - |
| 1777647667 | 21.11° C | 35% | 1025.6 hPa | 0 mm | - | 379 W/m² | - |
| 1777647487 | 21.11° C | 35% | 1025.8 hPa | 0 mm | - | 386 W/m² | - |
| 1777647307 | 21.11° C | 35% | 1025.8 hPa | 0 mm | - | 399 W/m² | - |
| 1777647127 | 21.11° C | 34% | 1025.6 hPa | 0 mm | - | 408 W/m² | - |
| 1777646947 | 21.11° C | 35% | 1026 hPa | 0 mm | - | 417 W/m² | - |
| 1777646767 | 21.11° C | 33% | 1025.8 hPa | 0 mm | - | 425 W/m² | - |
| 1777646587 | 21.11° C | 35% | 1025.9 hPa | 0 mm | - | 433 W/m² | - |
| 1777646407 | 21.11° C | 34% | 1025.9 hPa | 0 mm | - | 431 W/m² | - |
| 1777646227 | 21.11° C | 35% | 1026 hPa | 0 mm | - | 428 W/m² | - |
| 1777646047 | 21.11° C | 36% | 1026.1 hPa | 0 mm | - | 443 W/m² | - |
| 1777645867 | 21.11° C | 35% | 1026 hPa | 0 mm | - | 454 W/m² | - |
| 1777645687 | 21.11° C | 34% | 1026 hPa | 0 mm | - | 455 W/m² | - |
| 1777645507 | 21.67° C | 35% | 1026.2 hPa | 0 mm | - | 475 W/m² | - |
| 1777645327 | 21.67° C | 35% | 1026 hPa | 0 mm | - | 471 W/m² | - |
| 1777645147 | 21.67° C | 36% | 1026.3 hPa | 0 mm | - | 500 W/m² | - |
| 1777644967 | 21.67° C | 34% | 1026.2 hPa | 0 mm | - | 496 W/m² | - |
| 1777644786 | 21.67° C | 35% | 1026.2 hPa | 0 mm | - | 497 W/m² | - |
* Rain latest hour (hover to see other rain measurements)
** Current wind speed in m/s (hover to see current wind gust speed)